Hourly Data Report for October 18, 2016

All times are specified in Local Standard Time (LST). Add 1 hour to adjust for Daylight Saving Time where and when it is observed.

CORAL HARBOUR A
NUNAVUT

64°11'36.000" N
83°21'34.000" W
62.20 m
2301002
71915
YZS

Download Data

Hourly Data (October 2016)
Hourly Data Report for October 18, 2016
Temp Definition
°C
Dew Point Temp Definition
°C
Rel Hum Definition
%
Wind Dir Definition
10's deg

Wind Spd Definition
km/h
Visibility Definition
km
Stn Press Definition
kPa
Hmdx Definition


Wind Chill Definition


Weather Definition


TIME
00:00 Legend Double Dagger -11.4 -13.0 88 34 15 24.1 101.66   -18 LegendNANA
01:00 Legend Double Dagger -8.7 -10.5 87 5 23 24.1 101.65   -17 Mostly Cloudy
02:00 Legend Double Dagger -8.6 -10.4 87 5 23 24.1 101.66   -17 LegendNANA
03:00 Legend Double Dagger -8.6 -10.2 88 5 21 24.1 101.66   -16 LegendNANA
04:00 Legend Double Dagger -8.2 -9.6 90 4 21 24.1 101.64   -16 Mostly Cloudy
05:00 Legend Double Dagger -7.9 -9.3 90 4 22 24.1 101.64   -16 LegendNANA
06:00 Legend Double Dagger -7.6 -9.1 89 4 25 24.1 101.65   -16 LegendNANA
07:00 Legend Double Dagger -7.2 -9.3 85 4 24 24.1 101.64   -15 Cloudy
08:00 Legend Double Dagger -7.5 -9.9 83 4 27 24.1 101.60   -16 LegendNANA
09:00 Legend Double Dagger -7.9 -10.3 83 5 25 24.1 101.63   -16 LegendNANA
10:00 Legend Double Dagger -7.7 -10.3 82 5 25 24.1 101.59   -16 Mostly Cloudy
11:00 Legend Double Dagger -7.8 -10.8 79 4 23 24.1 101.57   -16 LegendNANA
12:00 Legend Double Dagger -7.5 -10.7 78 4 24 24.1 101.57   -15 LegendNANA
13:00 Legend Double Dagger -6.9 -10.1 78 5 24 24.1 101.53   -15 Mainly Clear
14:00 Legend Double Dagger -4.9 -7.4 83 7 20 24.1 101.53   -11 LegendNANA
15:00 Legend Double Dagger -5.7 -8.1 83 5 26 24.1 101.52   -13 LegendNANA
16:00 Legend Double Dagger -6.2 -8.5 84 5 23 24.1 101.52   -14 Mostly Cloudy
17:00 Legend Double Dagger -6.3 -9.4 79 5 25 24.1 101.52   -14 LegendNANA
18:00 Legend Double Dagger -6.7 -9.9 78 4 32 24.1 101.53   -15 LegendNANA
19:00 Legend Double Dagger -7.0 -9.9 80 4 23 24.1 101.55   -15 Cloudy
20:00 Legend Double Dagger -7.2 -10.1 80 5 26 24.1 101.56   -15 Snow
21:00 Legend Double Dagger -7.4 -10.3 80 6 17 24.1 101.58   -14 Snow
22:00 Legend Double Dagger -7.4 -10.6 78 6 21 24.1 101.57   -15 Snow
23:00 Legend Double Dagger -7.5 -10.5 79 5 18 24.1 101.55   -14 Snow

Notes on Data Quality.

Legend

  • E = Estimated
  • M = Missing
  • NA = Not Available
  • ‡ = Partner data that is not subject to review by the National Climate Archives
Date modified: